Regional Weather Roundup
Issued by NWS

Home | Current Version | Previous Version | Text Only | Print | Product List | Glossary On
Versions: 1 2 3 4 5 6 7 8 9 10 11 12 13 14 15 16 17 18 19 20 21 22 23 24 25 26 27
000
ASUS45 KCYS 041410
RWRWY

WYOMING REGIONAL WEATHER ROUNDUP
NATIONAL WEATHER SERVICE CHEYENNE WY
700 AM MST SUN DEC 04 2016

NOTE:  "FAIR" INDICATES FEW OR NO CLOUDS BELOW 12,000 FEET
WITH NO SIGNIFICANT WEATHER AND/OR OBSTRUCTIONS TO VISIBILITY.

WYZ001-041500-
YELLOWSTONE NATIONAL PARK

CITY           SKY/WX    TMP DP  RH WIND       PRES   REMARKS
LK YELLOWSTONE   N/A     19  17  92 VRB6      29.89F WCI  11
W YELLOWSTONE  NOT AVBL

$$
WYZ002>013-054>058-071-098>099-041500-
NORTHERN WYOMING

CITY           SKY/WX    TMP DP  RH WIND       PRES   REMARKS
JACKSON        LGT SNOW  27  25  93 S15       29.97F WCI  15
CODY           FAIR      34  19  54 SW10      29.84F WCI  26
GREYBULL       CLOUDY    26  17  68 S6        29.88F WCI  19
WORLAND        FAIR      23  15  71 S6        29.88F WCI  16
SHERIDAN       MOCLDY    28  15  58 SW3       29.84S
BUFFALO        MOCLDY    27  10  49 SW7       29.83F WCI  19
GILLETTE       MOCLDY    26  13  57 SW16      29.86S WCI  14
HULETT         FAIR      27  19  74 S9        29.87S WCI  17
NEWCASTLE      FAIR      19  18  93 CALM      29.93R

$$
WYZ014>020-022>026-101>103-041500-
CENTRAL WYOMING

CITY           SKY/WX    TMP DP  RH WIND       PRES   REMARKS
BIG PINEY      FAIR       9   6  88 N3        30.03S
PINEDALE       CLOUDY    14  12  92 N7        30.03R WCI   4
DUBOIS         FLURRIES  25  18  74 N17G26    29.87F WCI  11
LANDER         FAIR      18   7  62 CALM      29.88F
RIVERTON       FAIR      20   8  60 W7        29.90F WCI  11
CASPER         FAIR      24  15  68 SW20G26   29.92F WCI  10
DOUGLAS        FAIR      17   9  70 SE5       29.93F WCI  10

$$
WYZ021-027>030-104>119-041500-
SOUTHERN WYOMING

CITY           SKY/WX    TMP DP  RH WIND       PRES   REMARKS
EVANSTON       FAIR      20  12  71 SW17      30.08F WCI   5
FORT BRIDGER   FAIR      24  15  69 W15G22    30.09F WCI  11
ROCK SPRINGS   MOCLDY    23  14  68 SW8       30.07R WCI  14
DIXON          FAIR       8   4  84 CALM      30.16S
RAWLINS        FAIR      21  11  65 SW23G33   29.98F WCI   5
SARATOGA       CLOUDY    21  12  68 SE6       30.03F WCI  14
LARAMIE        FAIR      19   7  59 SW18      29.94F WCI   4
CHEYENNE       FAIR      25   7  46 SW13      29.95S WCI  14
TORRINGTON     FAIR      26  14  60 W10       29.97S WCI  16
PINE BLUFFS    FAIR      10   5  79 W3        30.01R

$$




USA.gov is the U.S. government's official web portal to all federal, state and local government web resources and services.